Regional Weather Roundup
Issued by NWS

Home | Current Version | Previous Version | Graphics & Text | Print | Product List | Glossary On
Versions: 1 2 3 4 5 6 7 8 9 10 11 12 13 14 15 16 17 18 19 20 21 22 23 24 25 26 27 28 29 30 31 32 33 34 35 36 37 38 39 40 41 42 43 44 45 46 47 48 49 50
000
ASUS43 KIND 221409
RWRIN

WEATHER ROUNDUP FOR INDIANA
NATIONAL WEATHER SERVICE INDIANAPOLIS IN
1000 AM EDT SAT APR 22 2017

NOTE: "FAIR" INDICATES FEW OR NO CLOUDS BELOW 12,000 FEET WITH NO
SIGNIFICANT WEATHER AND/OR OBSTRUCTIONS TO VISIBILITY.

* - STATION DOES NOT REPORT WEATHER SUCH AS PRECIPITATION OR FOG.

+ - STATION NOT QUALITY CONTROLLED BY THE NATIONAL WEATHER SERVICE.
    USE DATA WITH CAUTION...ESPECIALLY DEWPOINT AND RELATIVE
    HUMIDITY OBSERVATIONS.

INZ001>003-010>013-019-020-221500-
NORTHWEST INDIANA

CITY           SKY/WX    TMP DP  RH WIND       PRES   REMARKS
GARY /AIRPORT/ PTSUNNY   48  37  66 NE10      30.21S
KNOX *+        MOSUNNY   45  23  42 NE10      30.18F
LA PORTE +     MOSUNNY   46  35  64 NE9       30.19F
MICHIGAN CITY+ CLOUDY    46  36  66 NE6       30.21F
MONTICELLO +   CLOUDY    44  36  73 NE13      30.14F
RENSSELAER +   PTSUNNY   48  36  61 NE20G26   30.16S
VALPARAISO     MOSUNNY   48  37  65 NE10      30.19F

$$

LMZ046-743>745-221500-
SOUTHERN LAKE MICHIGAN

STATION/POSITION TIME  TEMP    WIND        PRES    WAVE
                       AIR SEA DIR/SP/G            HT
                 (UTC) (F)     (DEG/KT/KT) (MB)    (FT)
BURNS HARBOR     1340   44      40/ 11/ 12 1023.4R
MICHIGAN CITY    1340   44      30/ 10/ 10   N/A

$$

INZ004-005-014>016-021>024-221500-
NORTH CENTRAL INDIANA

CITY           SKY/WX    TMP DP  RH WIND       PRES   REMARKS
ELKHART        SUNNY     48  34  57 NE6       30.19R
GOSHEN         MOSUNNY   48  36  63 NE12      30.18R
LOGANSPORT +   CLOUDY    43  36  75 NE6       30.15F
PERU/GRISSOM   CLOUDY    45  38  76 NE14      30.13R
ROCHESTER +    MOSUNNY   46  36  66 NE8       30.17S
SOUTH BEND     MOSUNNY   47  36  65 NE6       30.20R
WARSAW +       CLOUDY    46  36  66 NE8       30.17R

$$

INZ006>009-017-018-025>027-221500-
NORTHEAST INDIANA

CITY           SKY/WX    TMP DP  RH WIND       PRES   REMARKS
ANGOLA *+      SUNNY     45  36  70 NE7       30.15R
AUBURN +       PTSUNNY   46  36  66 NE9       30.16R
FORT WAYNE     CLOUDY    47  36  65 NE12      30.14R
HUNTINGTON +   PTSUNNY   46  36  70 NE12      30.14R
KENDALLVILLE + CLOUDY    46  37  68 NE8       30.16R

$$

INZ028-029-035-036-043>045-051>053-221500-
WEST CENTRAL INDIANA

CITY           SKY/WX    TMP DP  RH WIND       PRES   REMARKS
CRAWFORDSVL +  CLOUDY    43  38  80 NE12G17   30.10S
GREENCASTLE +  CLOUDY    45  36  70 NE13      30.08S
LAFAYETTE      CLOUDY    44  38  79 NE14G21   30.13F
TERRE HAUTE    MOSUNNY   48  38  68 NE13      30.09R

$$

INZ030>032-037>040-046>048-054>057-064-065-221500-
CENTRAL INDIANA

CITY           SKY/WX    TMP DP  RH WIND       PRES   REMARKS
ANDERSON       SUNNY     45  37  76 NE12G17   30.11
CP ATTERBURY + CLOUDY    46  39  76 NE12      30.08R
COLUMBUS       CLOUDY    46  39  76 NE12      30.06R
FISHERS *+     CLOUDY    45  41  87 NE10      30.11R
FRANKFORT +    CLOUDY    46  38  74 E14G20    30.13F
GREENWOOD *+   PTSUNNY   47  37  70 NE12      30.09R
INDIANAPOLIS   CLOUDY    47  37  68 NE15      30.09R
-EAGLE CREEK   CLOUDY    47  37  68 NE10      30.09R
KOKOMO +       CLOUDY    44  37  76 NE14      30.14R
MARION +       CLOUDY    45  36  70 NE13      30.14R
MT COMFORT *+  PTSUNNY   45  37  76 NE14      30.10R
SHELBYVILLE    CLOUDY    48  38  68 NE10      30.08R
ZIONSVILLE +   CLOUDY    44  37  75 NE14G23   30.11S

$$

INZ033-034-041-042-049-050-058-059-221500-
EAST CENTRAL INDIANA

CITY           SKY/WX    TMP DP  RH WIND       PRES   REMARKS
MUNCIE         CLOUDY    47  37  68 NE16G23   30.11R
RICHMOND +     PTSUNNY   45  37  76 NE21      30.07R

$$

INZ060-061-067>069-081>083-085>088-221500-
SOUTHWEST INDIANA

CITY           SKY/WX    TMP DP  RH WIND       PRES   REMARKS
EVANSVILLE     CLOUDY    49  43  80 N7        30.03R
HUNTINGBURG *+ LGT RAIN  48  44  86 NE15      29.97F
WASHINGTON +   CLOUDY    48  39  69 MISG      30.02S

$$

INZ062-063-066-070>080-084-089>092-221500-
SOUTH CENTRAL AND SOUTHEAST INDIANA

CITY           SKY/WX    TMP DP  RH WIND       PRES   REMARKS
BEDFORD +      CLOUDY    48  39  71 NE10      30.02R
BLOOMINGTON    CLOUDY    47  38  71 N12       30.06R
MADISON *+     CLOUDY    48  41  76 NE18      30.03S
NORTH VERNON + CLOUDY    48  39  71 NE15G25   30.03F
SEYMOUR +      CLOUDY    50  41  71 NE15      30.03F

$$





USA.gov is the U.S. government's official web portal to all federal, state and local government web resources and services.